COSMOS 2168

Satellite information

Favourite Embed

Satellite Type and Status

PAYLOADIN ORBIT

Key statistics

Satellite COSMOS 2168 at a glance.

Uptime

12450

Days in orbit

Revolutions

≈ 12.7

Per day

Orbit

LEO

Low Earth Orbit

Inclination

82.6

Latest

Satellite identification and parameters

Extended collection of information and parameters for COSMOS 2168.

Object identification

Identified? True

Debris? False

Object name: COSMOS 2168

International designator: 1991-077D

Object number (NORAD): 21782

Object ID (CCSDS): 21782

Country: COMMONWEALTH OF INDEPENDENT STATES (CIS)

Current information (Y/N): Y

RCS size: LARGE

Orbital parameters

Period: 113.787 minutes

Inclination: 82.5968 deg

SMA: 7778.353 km

Apoapsis: 1411.703 km

Periapsis: 1388.732 km

RAAN: 332.6899 deg

Eccentricy: 0.00147664

Argument of periapsis: 90.7149 deg

Mean anomaly: 341.7564 deg

Mean motion: 12.65526714 rev/day

Mean motion (dot): 0.00000034 rev/day2

B* drag term: 0.00012580317 1/REarth

Two-line elements (TLE)

Creation date: Dec. 12, 2025, 10:14 a.m.

Reference frame: TEME

Reference center: EARTH

Epoch: Dec. 12, 2025, 2:10 a.m. UTC

TLE line 0: 0 COSMOS 2168

TLE line 1: 1 21782U 91077D 25346.09069325 .00000034 00000-0 12580-3 0 9994

TLE line 2: 2 21782 82.5968 332.6899 0014766 90.7149 341.7564 12.65526714574133

Live tracking on map

Real-time ground track for satellite COSMOS 2168.

In-orbit conjunctions

A list of the most updated potential collisions computed for object COSMOS 2168.

Target Orbit TCA Probability of collision Miss distance Type
DELTA 1 DEB SSO 2025-08-28 23:13:23 0.001856262 151.0 (m) DEBRIS
SL-14 DEB LEO 2024-06-08 09:26:29 0.0001171686 782.0 (m) DEBRIS

Associated space launch

Second generation store-dump military communications satellite

COSMOS 2168 was lifted into orbit during the mission ‘Tsiklon-3 | Strela-3 73 to 78’, on board a Tsiklon-3 space rocket.

The launch took place on Nov. 12, 1991, 8:09 p.m. from 32/1.

For more information about the launch, click the button.

Launch to space Tsiklon-3 | Strela-3 73 to 78
Tsiklon-3 | Strela-3 73 to 78

Agency: N/A

Status: Launch Successful

Launch date: Nov. 12, 1991, 8:09 p.m. UTC

Rocket: Tsiklon-3

Launch pad: 32/1

Location: Plesetsk Cosmodrome, Russian Federation

...

Latest news about this satellite

There are no fresh news available about this satellite. Check back as we update our databases every day.


Newsletter sign-up

Weekly statistics, charts and insights to help you stay on top of the space industry.